Retour au catalogue

BLOCK DM-SL R/B

ActifHEO
NORAD 29237·ROCKET BODY· XX

Lancé Jun 18, 2006 depuis Sea Launch Platform

Loading…

Prochains Passages (prochaines 24 heures)

TLE

FraisSource: Space-Track

Époque: Sep 14, 2026, 13:39 UTC

1 29237U 06023B   26257.56929318 -.00000074  00000-0  00000-0 0  9991
2 29237   1.0078  23.5994 6626707  65.9191 347.9715  2.15891221159606

Suivez BLOCK DM-SL R/B en temps réel avec AllMySat

Download on the App Store